Hourly Data Report for October 05, 2017

All times are specified in Local Standard Time (LST). Add 1 hour to adjust for Daylight Saving Time where and when it is observed.

REVELSTOKE A
BRITISH COLUMBIA

50°58'00.000" N
118°11'00.000" W
444.70 m
1176745
71685
YRV

Download Data

Hourly Data (October 2017)
Hourly Data Report for October 5, 2017
Temp Definition
°C
Dew Point Temp Definition
°C
Rel Hum Definition
%
Wind Dir Definition
10's deg

Wind Spd Definition
km/h
Visibility Definition
km
Stn Press Definition
kPa
Hmdx Definition


Wind Chill Definition


Weather Definition


TIME
00:00 Legend Double Dagger 3.6 3.0 96   0 16.1 97.08     LegendNANA
01:00 Legend Double Dagger 3.6 2.7 94   0 16.1 97.11     LegendNANA
02:00 Legend Double Dagger 3.1 2.8 98   0 2.8 97.11     Fog
03:00 Legend Double Dagger 2.3 2.0 98   0 4.0 97.12     Fog
04:00 Legend Double Dagger 2.8 2.4 97   0 16.1 97.13     LegendNANA
05:00 Legend Double Dagger 2.0 1.6 97   0 9.7 97.14     Fog
06:00 Legend Double Dagger 2.4 2.0 97   0 16.1 97.16     LegendNANA
07:00 Legend Double Dagger 1.9 1.5 97   0 6.4 97.21     Fog
08:00 Legend Double Dagger 4.2 4.1 99   0 16.1 97.20     LegendNANA
09:00 Legend Double Dagger 7.0 4.3 83 LegendMM 4 16.1 97.14     LegendNANA
10:00 Legend Double Dagger 9.7 4.5 70   0 16.1 97.06     LegendNANA
11:00 Legend Double Dagger 11.8 4.9 63   0 16.1 96.97     LegendNANA
12:00 Legend Double Dagger 14.2 3.9 50 21 5 16.1 96.84     LegendNANA
13:00 Legend Double Dagger 15.9 4.3 46 18 5 12.9 96.72     LegendNANA
14:00 Legend Double Dagger 16.9 5.2 46 18 11 16.1 96.62     LegendNANA
15:00 Legend Double Dagger 16.5 5.2 47 18 8 16.1 96.52     LegendNANA
16:00 Legend Double Dagger 13.4 5.2 57 22 8 16.1 96.46     LegendNANA
17:00 Legend Double Dagger 9.2 6.6 84 LegendMM 4 16.1 96.44     LegendNANA
18:00 Legend Double Dagger 7.9 5.3 84   0 16.1 96.47     LegendNANA
19:00 Legend Double Dagger 7.5 5.4 86   0 16.1 96.49     LegendNANA
20:00 Legend Double Dagger 6.3 5.2 93   0 16.1 96.49     LegendNANA
21:00 Legend Double Dagger 4.9 4.5 97   0 6.4 96.52     Fog
22:00 Legend Double Dagger 4.2 3.8 97   0 0.6 96.50     Fog
23:00 Legend Double Dagger 4.4 4.0 97   0 16.1 96.47     LegendNANA

Notes on Data Quality.

Legend

  • E = Estimated
  • M = Missing
  • NA = Not Available
  • ‡ = Partner data that is not subject to review by the National Climate Archives
Date modified: